Showing default

NORSAT 2, 42828

Orbit data source: Space-Track

NORSAT 2, 42828 is a payload satellite owned by Statsat (NO) in SSO that was launched on Fri, 14 Jul 2017 UTC via a SOYUZ-2-1A launch vehicle from the Tyuratam Missile And Space Complex (TTMTR). Payload-class satellites include a variety of spacecraft equipped with specific instruments for various scientific and technological missions. These include communications satellites like Starlink; space stations such as the ISS; scientific satellites like the Hubble; Earth observation satellites from companies like Planet Labs, Umbra, and HawkEye 360; GPS; miniature CubeSats for education and research; and military/defense satellites.

Loading next visibility...
Identifier
42828, 2017-042D
Orbit
SSO
Country
Flag of NONO / NOR
Related business
Manufacturer
UTIAS-SFL
Mission
Operational Commercial Communications
Bus & Motor
GNB, Unknown motor
Mass
30 kg wet, 30 kg dry
Launch date (UTC)
2017-07-14 (8 years ago)
Launch vehicle
SOYUZ-2-1A
Launch site
Tyuratam Missile And Space Complex (TTMTR)
Object type
Payload
Rocket body
Debris
Shape & HBR
Box + 2 Pan + 4 Ant, 1.2 m
Radar Cross Section
0.202 m², Medium (>0.1 m² and < 1m²)

Expand to show TLE details & history
Last TLE update: 10 hours ago

TLE from 10 hours ago
0 NORSAT 2
1 42828U 17042D   25289.13755184  .00012275  00000-0  65538-3 0  9995
2 42828  97.3915 102.7739 0010891 179.0644 181.0611 15.15215442450691
Epoch: 2025-10-16T03:18Z
TLE epoch observation values (Epoch: 2025-10-16T03:18:04.478Z)
Latitude
-0.00004°
Longitude
28.35366°
Altitude
530.922 km
Speed
7.593 km/s
True Right ascension
06h 51m 05s
True Declination
0° 00' 00"
Sunlit
Object was in daylight at epoch
Visualization orbit readout
Latitude
Unknown
Longitude
Unknown
Altitude
Unknown
Speed
Unknown
Apparent Right ascension
Unknown
Apparent Declination
Unknown
Sunlit
N/A
Visualization observer readout
Local Sidereal Time
07:57:28
Azimuth
Unknown
Elevation
Unknown
Doppler factor
Unknown
Orbital elements
Apogee altitude
524.806 km
Perigee altitude
509.786 km
Semi-major axis
6,895.433 km
Eccentricity
0.00109
Inclination
97.3915°
RAAN
102.7739°
Arg. of periapsis
179.0644°
True anomaly
181.05879°
Mean anomaly
181.0611°
Eccentric anomaly
181.05995°
Mean motion
3.79054 °/min
Orbital period
94.97 mins
BSTAR
0.00065538
Loading maneuver chart data...
Computing Atmospheric mass density...

Documentation

Showing up to 5 results
|